Powrót do katalogu

CZ-6A DEB

AktywnyPO
NORAD 60641·DEBRIS·🇨🇳 China

Wystrzelony Aug 6, 2024 z Taiyuan Satellite Launch Center

Loading…

Następne Przeloty (najbliższe 24 godziny)

TLE

ŚwieżeSource: Space-Track

Epoka: Sep 14, 2026, 14:39 UTC

1 60641U 24140AS  26257.61054868  .00000899  00000-0  60083-3 0  9994
2 60641  89.5811 318.7182 0341495  23.2162 338.4020 13.75628731105417

Śledź CZ-6A DEB w czasie rzeczywistym z AllMySat

Download on the App Store